Weather History for KIKV - September, 2013

Change the Weather History Date:

Friday, September 27, 2013

  Actual Average (KDSM) Record (KDSM)
Temperature  
Mean Temperature 75 °F 61 °F  
Max Temperature 86 °F 71 °F 91 °F (1956)
Min Temperature 64 °F 50 °F 31 °F (1942)
Degree Days  
Heating Degree Days 0 6  
Month to date heating degree days 74  
Since 1 July heating degree days 80  
Cooling Degree Days 10 2  
Month to date cooling degree days 108  
Year to date cooling degree days 1047  
Growing Degree Days 25 (Base 50)    
Moisture  
Dew Point 61 °F    
Average Humidity 67    
Maximum Humidity 88    
Minimum Humidity 40    
Precipitation  
Precipitation 0.00 in 0.09 in 3.25 in (1945)
Month to date precipitation 2.78  
Year to date precipitation 29.50  
Snow  
Snow 0.00 in 0.00 in - ()
Month to date snowfall 0.0  
Since 1 July snowfall 0.0  
Since 1 September snowfall 0.0  
Snow Depth -    
Sea Level Pressure  
Sea Level Pressure 29.93 in    
Wind  
Wind Speed 10 mph (SSE)    
Max Wind Speed 21 mph    
Max Gust Speed 30 mph    
Visibility 10 miles    
Events      
T = Trace of Precipitation, MM = Missing Value Source: NWS Daily Summary

Daily Weather History Graph

Daily Weather History Graph

Search for Another Location

Airport or City:

Trip Planner

Search our weather history database for the weather conditions in past years. The results will help you decide how hot, cold, wet, or windy it might be!

Date:

Astronomy

Sep. 27, 2013 Rise Set
Actual Time 7:07 AM CDT 7:02 PM CDT
Civil Twilight 6:39 AM CDT 7:30 PM CDT
Nautical Twilight 6:07 AM CDT 8:02 PM CDT
Astronomical Twilight 5:34 AM CDT 8:34 PM CDT
Moon No Moon Rise 2:45 PM CDT (9/27)
Length of Visible Light 12h 50m
Length of Day
11h 55m
Last Quarter, 45% of the Moon is Illuminated
Sep 27
Last Quarter
Oct 4
New
Oct 11
First Quarter
Oct 18
Full
Oct 26
Last Quarter

Hourly Weather History & Observations

Time (CDT) Temp. Heat Index Dew Point Humidity Pressure Visibility Wind Dir Wind Speed Gust Speed Precip Events Conditions
12:15 AM 66.2 °F - 60.8 °F 83% 29.94 in 10.0 mi SE 5.8 mph - N/A   Clear
12:35 AM 66.2 °F - 60.8 °F 83% 29.95 in 10.0 mi SE 5.8 mph - N/A   Clear
12:55 AM 66.2 °F - 60.8 °F 83% 29.95 in 10.0 mi SE 4.6 mph 11.5 mph N/A   Clear
1:15 AM 66.2 °F - 60.8 °F 83% 29.95 in 10.0 mi SE 5.8 mph - N/A   Clear
1:35 AM 66.2 °F - 60.8 °F 83% 29.95 in 10.0 mi SE 5.8 mph - N/A   Clear
1:55 AM 64.4 °F - 60.8 °F 88% 29.96 in 10.0 mi SE 5.8 mph - N/A   Clear
2:15 AM 66.2 °F - 60.8 °F 83% 29.96 in 10.0 mi SE 6.9 mph - N/A   Clear
2:35 AM 66.2 °F - 60.8 °F 83% 29.95 in 10.0 mi SE 8.1 mph - N/A   Clear
2:55 AM 64.4 °F - 60.8 °F 88% 29.95 in 10.0 mi SE 6.9 mph - N/A   Clear
3:15 AM 64.4 °F - 60.8 °F 88% 29.95 in 10.0 mi SSE 5.8 mph - N/A   Clear
3:35 AM 66.2 °F - 60.8 °F 83% 29.95 in 10.0 mi SSE 6.9 mph - N/A   Clear
3:55 AM 66.2 °F - 60.8 °F 83% 29.95 in 10.0 mi SE 6.9 mph - N/A   Clear
4:15 AM 66.2 °F - 60.8 °F 83% 29.95 in 10.0 mi SE 9.2 mph - N/A   Clear
4:35 AM 64.4 °F - 60.8 °F 88% 29.95 in 10.0 mi SE 8.1 mph - N/A   Clear
4:55 AM 64.4 °F - 60.8 °F 88% 29.95 in 10.0 mi SSE 8.1 mph - N/A   Clear
5:15 AM 64.4 °F - 60.8 °F 88% 29.95 in 10.0 mi SE 5.8 mph - N/A   Clear
5:35 AM 64.4 °F - 60.8 °F 88% 29.96 in 10.0 mi SE 8.1 mph - N/A   Clear
5:55 AM 64.4 °F - 60.8 °F 88% 29.96 in 10.0 mi SE 6.9 mph - N/A   Clear
6:15 AM 64.4 °F - 60.8 °F 88% 29.96 in 10.0 mi SE 6.9 mph - N/A   Clear
6:35 AM 64.4 °F - 60.8 °F 88% 29.96 in 10.0 mi SE 8.1 mph - N/A   Clear
6:55 AM 66.2 °F - 60.8 °F 83% 29.96 in 10.0 mi SSE 10.4 mph - N/A   Clear
7:15 AM 66.2 °F - 62.6 °F 88% 29.96 in 10.0 mi SSE 9.2 mph - N/A   Clear
7:35 AM 66.2 °F - 62.6 °F 88% 29.97 in 10.0 mi SSE 10.4 mph - N/A   Clear
7:55 AM 66.2 °F - 62.6 °F 88% 29.97 in 10.0 mi SSE 11.5 mph - N/A   Clear
8:15 AM 68.0 °F - 62.6 °F 83% 29.97 in 10.0 mi SSE 11.5 mph - N/A   Clear
8:35 AM 68.0 °F - 62.6 °F 83% 29.97 in 10.0 mi SSE 12.7 mph - N/A   Clear
8:55 AM 69.8 °F - 62.6 °F 78% 29.97 in 10.0 mi SSE 12.7 mph - N/A   Clear
9:15 AM 71.6 °F - 64.4 °F 78% 29.98 in 10.0 mi SSE 10.4 mph 18.4 mph N/A   Clear
9:35 AM 71.6 °F - 64.4 °F 78% 29.97 in 10.0 mi SSE 12.7 mph 20.7 mph N/A   Clear
9:55 AM 73.4 °F - 64.4 °F 73% 29.98 in 10.0 mi SSE 11.5 mph 18.4 mph N/A   Clear
10:15 AM 75.2 °F - 64.4 °F 69% 29.97 in 10.0 mi South 15.0 mph 20.7 mph N/A   Clear
10:35 AM 77.0 °F - 62.6 °F 61% 29.97 in 10.0 mi South 16.1 mph - N/A   Clear
10:55 AM 77.0 °F - 64.4 °F 65% 29.97 in 10.0 mi SSE 13.8 mph 20.7 mph N/A   Clear
11:15 AM 78.8 °F - 62.6 °F 57% 29.96 in 10.0 mi South 13.8 mph 19.6 mph N/A   Clear
11:35 AM 80.6 °F 81.8 °F 62.6 °F 54% 29.96 in 10.0 mi South 16.1 mph - N/A   Clear
11:55 AM 80.6 °F 81.8 °F 62.6 °F 54% 29.95 in 10.0 mi SSE 16.1 mph - N/A   Clear
12:15 PM 82.4 °F 83.4 °F 62.6 °F 51% 29.94 in 10.0 mi SSE 15.0 mph 21.9 mph N/A   Clear
12:35 PM 82.4 °F 83.4 °F 62.6 °F 51% 29.93 in 10.0 mi SE 18.4 mph - N/A   Clear
12:55 PM 82.4 °F 83.4 °F 62.6 °F 51% 29.93 in 10.0 mi SSE 19.6 mph 25.3 mph N/A   Clear
1:15 PM 84.2 °F 85.0 °F 62.6 °F 48% 29.92 in 10.0 mi SSE 18.4 mph 29.9 mph N/A   Clear
1:35 PM 84.2 °F 85.0 °F 62.6 °F 48% 29.91 in 10.0 mi SSE 16.1 mph 27.6 mph N/A   Clear
1:55 PM 86.0 °F 86.1 °F 60.8 °F 43% 29.90 in 10.0 mi SSE 20.7 mph 29.9 mph N/A   Clear
2:15 PM 86.0 °F 85.4 °F 59.0 °F 40% 29.89 in 10.0 mi SSE 19.6 mph 26.5 mph N/A   Clear
2:35 PM 86.0 °F 85.4 °F 59.0 °F 40% 29.89 in - SSE 20.7 mph 29.9 mph N/A   Clear
2:55 PM 86.0 °F 86.1 °F 60.8 °F 43% 29.88 in 10.0 mi SSE 20.7 mph 27.6 mph N/A   Clear
3:15 PM 86.0 °F 85.4 °F 59.0 °F 40% 29.88 in 10.0 mi SSE 19.6 mph 27.6 mph N/A   Clear
3:35 PM 86.0 °F 85.4 °F 59.0 °F 40% 29.88 in 10.0 mi South 19.6 mph 26.5 mph N/A   Clear
3:55 PM 86.0 °F 86.1 °F 60.8 °F 43% 29.88 in 10.0 mi SSE 15.0 mph 25.3 mph N/A   Clear
4:15 PM 84.2 °F 84.4 °F 60.8 °F 45% 29.88 in 10.0 mi SSE 20.7 mph - N/A   Clear
4:35 PM 84.2 °F 83.8 °F 59.0 °F 42% 29.88 in 10.0 mi South 20.7 mph 28.8 mph N/A   Clear
4:55 PM 84.2 °F 84.4 °F 60.8 °F 45% 29.88 in 10.0 mi South 15.0 mph 23.0 mph N/A   Clear
5:15 PM 84.2 °F 84.4 °F 60.8 °F 45% 29.88 in 10.0 mi SSE 15.0 mph 21.9 mph N/A   Clear
5:35 PM 82.4 °F 82.9 °F 60.8 °F 48% 29.88 in 10.0 mi SSE 18.4 mph 24.2 mph N/A   Clear
5:55 PM 82.4 °F 82.9 °F 60.8 °F 48% 29.88 in 10.0 mi SSE 15.0 mph - N/A   Clear
6:15 PM 82.4 °F 82.9 °F 60.8 °F 48% 29.88 in 10.0 mi SSE 17.3 mph - N/A   Clear
6:35 PM 80.6 °F 81.5 °F 60.8 °F 51% 29.88 in 10.0 mi SSE 9.2 mph 18.4 mph N/A   Clear
6:55 PM 78.8 °F - 60.8 °F 54% 29.88 in 10.0 mi SSE 9.2 mph 15.0 mph N/A   Clear
7:15 PM 77.0 °F - 60.8 °F 57% 29.88 in 10.0 mi SSE 9.2 mph - N/A   Clear
7:35 PM 77.0 °F - 60.8 °F 57% 29.88 in 10.0 mi SSE 10.4 mph - N/A   Clear
7:55 PM 75.2 °F - 60.8 °F 61% 29.88 in 10.0 mi SE 8.1 mph - N/A   Clear
8:15 PM 75.2 °F - 60.8 °F 61% 29.88 in 10.0 mi SSE 8.1 mph - N/A   Clear
8:35 PM 75.2 °F - 60.8 °F 61% 29.89 in 10.0 mi SE 8.1 mph - N/A   Clear
8:55 PM 73.4 °F - 60.8 °F 65% 29.89 in 10.0 mi SE 10.4 mph - N/A   Clear
9:15 PM 73.4 °F - 60.8 °F 65% 29.89 in 10.0 mi SSE 10.4 mph - N/A   Clear
9:35 PM 73.4 °F - 60.8 °F 65% 29.90 in 10.0 mi SE 11.5 mph - N/A   Clear
9:55 PM 73.4 °F - 60.8 °F 65% 29.90 in 10.0 mi SSE 11.5 mph - N/A   Clear
10:15 PM 73.4 °F - 60.8 °F 65% 29.90 in 10.0 mi SSE 11.5 mph - N/A   Clear
10:35 PM 71.6 °F - 60.8 °F 69% 29.90 in 10.0 mi SSE 11.5 mph - N/A   Clear
10:55 PM 71.6 °F - 60.8 °F 69% 29.89 in 10.0 mi SSE 11.5 mph 18.4 mph N/A   Clear
11:15 PM 71.6 °F - 60.8 °F 69% 29.89 in 10.0 mi SE 10.4 mph - N/A   Clear
11:35 PM 69.8 °F - 60.8 °F 73% 29.88 in 10.0 mi SE 10.4 mph - N/A   Clear
11:55 PM 69.8 °F - 60.8 °F 73% 29.87 in 10.0 mi SE 9.2 mph - N/A   Clear